カタログに戻る

STARLINK-34914

運用中通信VLEO
NORAD 65203·PAYLOAD·🇺🇸 United States

打ち上げ Aug 14, 2025 から Cape Canaveral Space Force Station

Loading…

次のパス (今後24時間)

TLE

最新Source: CelesTrak SupGP

元期: Sep 15, 2026, 04:05 UTC

1 65203C 25176F   26258.17062500  .00065493  00000+0  19352-2 0  2587
2 65203  53.1596 348.4706 0001395  93.3625 107.8130 15.34353864    18

AllMySatでSTARLINK-34914をリアルタイム追跡

Download on the App Store